Content
SEND FEEDBACK

Daily
Averages
Monthly
Summary
United States of America

NEW YORK - CENTRAL PARK, NEW YORK


Home > North America > United States > New York
Elevation: 4 meters     Latitude: 40 47N     Longitude: 073 58W

WEATHER
 
SELECT A DAY
Number of Records: 148,328;   Date Range: 11/1/95 - 9/18/14
 
SHARE

PRINT THIS DATA

[ ← Previous Day ]
WEATHER ALMANAC - 25 MARCH, 2013
[ Next Day → ]
[ °F ]   °C
Weather ElementAverageHighLow
Temperature3.2 °C4.4 °C (12:51 pm)2.2 °C (2:51 pm)
Dewpoint-1.2 °C1.1 °C (3:28 pm)-5 °C (2:51 am)
Humidity74.5 %89 % (2:51 pm)53 % (2:51 am)
Barometer1000.7 hPa1005.8 hPa (1:51 am)998 hPa (3:51 pm)
Wind Speed13.5 km/h37 km/h (9:51 am)
Wind Gust51.8 km/h (12:51 pm)
Weather ElementAverage
Visibility12.7 km
Wind DirectionENE (60.6 °)

Weather ElementTotal
Precipitation6.86 mm
Heating Degree Days15.1 (Base 18.3)
Averaged from 31 records on 25 March, 2013
WEATHER CONDITIONS BREAKOUT
WIND DIRECTION BREAKOUT
WEATHER BY HOUR - 25 MARCH, 2013
[ °F ]   °C
Local TimeTemperatureDewpointHumidityBarometerVisibilityWind DirectionWind SpeedGust SpeedPrecipitationEventsConditions
1:51 AM3.9 °C-3.9 °C57 %1005.8 hPa16.1 kmVariable11.1 km/hClear
2:51 AM3.9 °C-5 °C53 %1004.7 hPa16.1 kmSSE (160°)9.3 km/hClear
3:51 AM3.9 °C-4.4 °C55 %1003.4 hPa16.1 kmENE (70°)7.4 km/hScattered Clouds
4:51 AM3.3 °C-3.3 °C62 %1003 hPa16.1 kmENE (70°)14.8 km/hOvercast
5:51 AM3.3 °C-2.2 °C68 %1003 hPa16.1 kmEast (80°)18.5 km/h31.5 km/hOvercast
6:51 AM2.8 °C-2.2 °C70 %1002.7 hPa16.1 kmEast (80°)18.5 km/h29.6 km/hOvercast
7:51 AM3.3 °C-3.3 °C62 %1002.4 hPa16.1 kmENE (70°)16.7 km/hOvercast
8:51 AM3.3 °C-3.9 °C60 %1003 hPa16.1 kmENE (70°)14.8 km/hOvercast
9:51 AM3.9 °C-4.4 °C55 %1002.4 hPa16.1 kmENE (60°)37 km/h48.1 km/hOvercast
10:51 AM3.9 °C-3.9 °C57 %1001.7 hPa16.1 kmENE (70°)20.4 km/h38.9 km/hOvercast
11:04 AM3.3 °C-3.3 °C62 %1002.4 hPa14.5 kmENE (70°)16.7 km/h37 km/hOvercast
11:51 AM3.3 °C-2.2 °C68 %1001 hPa14.5 kmEast (80°)20.4 km/h31.5 km/hOvercast
12:49 PM4 °C-2 °C65 %1000.7 hPa16.1 kmEast (80°)25.9 km/h48.1 km/hOvercast
12:51 PM4.4 °C-2.8 °C60 %999.7 hPa16.1 kmENE (70°)33.3 km/h51.8 km/hOvercast
1:51 PM2.8 °C-1.1 °C76 %999 hPa11.3 kmENE (70°)27.8 km/h48.1 km/h0 mmSnowLight Snow
2:51 PM2.2 °C0.6 °C89 %998.3 hPa8 kmVariable9.3 km/h0.51 mmOvercast
3:12 PM2.2 °C0.6 °C89 %999 hPa6.4 kmEast (80°)14.8 km/h31.5 km/h0.25 mmOvercast
3:28 PM2.8 °C1.1 °C89 %998.6 hPa6.4 kmNE (50°)11.1 km/h0.25 mmOvercast
3:51 PM2.8 °C1.1 °C89 %998 hPa11.3 kmVariable7.4 km/h0.51 mmOvercast
4:34 PM2.8 °C0.6 °C86 %998.6 hPa11.3 kmENE (70°)7.4 km/h0.51 mmOvercast
4:49 PM3 °C1 °C87 %998.6 hPa8 kmNE (40°)9.3 km/h0.51 mmOvercast
4:51 PM2.8 °C0.6 °C86 %998 hPa8 kmNE (40°)13 km/h0.51 mmOvercast
5:51 PM2.2 °C0.6 °C89 %998 hPa9.7 kmNE (50°)13 km/h1.02 mmOvercast
6:49 PM3 °C1 °C87 %999.7 hPa9.7 kmCalm0.51 mmOvercast
6:51 PM2.8 °C1.1 °C89 %999 hPa9.7 kmCalm0.51 mmOvercast
7:43 PM2.8 °C1.1 °C89 %1000.3 hPa11.3 kmCalm0.51 mmOvercast
7:51 PM2.8 °C1.1 °C89 %999.7 hPa12.9 kmCalm0.51 mmOvercast
8:51 PM2.8 °C1.1 °C89 %1000.7 hPa8 kmNE (40°)11.1 km/h0.51 mmRainLight Rain
8:59 PM2.8 °C1.1 °C89 %1001.4 hPa9.7 kmCalm0 mmOvercast
9:51 PM3.3 °C0 °C79 %1001.4 hPa16.1 kmENE (60°)16.7 km/h0.25 mmOvercast
11:51 PM3.9 °C-2.2 °C65 %1001.7 hPa16.1 kmNorth (350°)13 km/hMostly Cloudy
Hourly data recorded from KNYC, located 0 kilometers away from New York - Central Park, New York







STORIES FROM OUR PARTNERS